Probability
0 0 0 0 0 0 0 0 0 0 0 0 0 0 0 0 0 0 0 0 1 1 1 2 4 5 5 5 7 9 8 9 9 10 9 7 4 2 2 3 5 5 5 4 3 2 1 0 0
0 0 0 0 0 0 0 0 0 0 0 0 0 0 0 0 0 0 0 1 2 2 2 2 3 5 6 6 8 9 9 8 9 9 8 7 5 2 2 3 4 4 4 3 3 2 1 0 0
0 0 0 0 0 0 0 0 0 0 0 0 0 0 0 0 0 0 1 2 2 2 2 1 3 6 6 6 8 10 9 9 8 7 7 7 6 4 3 3 4 4 4 4 3 3 1 0 0
0 0 0 0 0 0 0 0 0 0 0 0 0 0 0 0 0 0 1 2 1 1 1 1 3 5 5 6 7 9 9 9 8 6 7 8 8 6 5 5 5 5 5 5 4 3 2 1 0
0 0 0 0 0 0 0 0 0 0 0 0 0 0 0 0 0 0 0 1 1 1 0 1 3 4 5 5 6 8 9 9 8 8 9 10 10 9 8 6 6 6 6 5 4 3 3 2 1
0 0 0 0 0 0 0 0 0 0 0 0 0 0 0 0 0 0 0 0 1 2 1 1 2 3 4 5 6 7 7 8 8 9 10 10 10 10 9 8 8 8 8 6 4 4 4 4 3
0 0 0 0 0 0 0 0 0 0 0 0 0 0 0 0 0 0 0 1 2 3 2 1 1 2 4 4 5 6 7 7 8 10 10 8 9 10 10 9 9 10 9 8 6 5 5 5 5
0 0 0 0 0 0 0 0 0 0 0 0 0 0 0 0 0 0 1 2 3 3 2 1 0 2 4 4 4 5 6 6 7 7 7 7 7 8 8 8 8 9 10 11 10 9 6 4 4
0 0 0 0 0 0 0 0 0 0 0 0 0 0 0 0 0 0 1 2 3 3 3 1 1 2 4 4 3 4 5 5 5 5 4 5 5 4 4 4 4 6 10 14 15 13 8 4 2
0 0 0 0 0 0 0 0 0 0 0 0 0 0 0 0 0 0 0 1 2 3 2 2 2 3 4 4 4 4 4 3 3 3 3 2 2 2 2 2 2 4 7 10 12 12 8 4 2
0 0 0 0 0 0 0 0 0 0 0 0 0 0 0 0 0 0 0 0 1 2 1 1 2 4 4 5 5 5 4 3 3 2 2 1 1 2 2 3 3 4 5 5 5 6 4 3 3
0 0 0 0 0 0 0 0 0 0 0 0 0 0 0 0 0 0 0 0 0 0 0 1 4 5 4 4 5 5 3 2 2 2 1 0 1 2 3 4 5 5 4 3 2 1 1 1 2
0 0 0 0 0 0 0 0 0 0 0 0 0 0 0 0 0 0 0 0 0 0 0 2 4 6 5 4 4 4 2 1 1 2 2 1 0 1 3 5 6 5 4 3 2 1 0 0 1
0 0 0 0 0 0 0 0 0 0 0 0 0 0 0 0 0 0 0 0 0 0 0 1 3 6 6 4 3 3 1 1 1 3 4 2 1 0 1 4 5 4 3 2 1 0 0 0 0
0 0 0 0 0 0 0 0 0 0 0 0 0 0 0 0 0 0 0 0 0 0 0 0 2 5 6 4 3 3 2 2 3 3 4 3 1 0 1 3 4 4 2 1 0 0 0 0 0
0 0 0 0 0 0 0 0 0 0 0 0 0 0 0 0 0 0 0 0 0 0 0 1 2 4 6 5 4 3 3 3 3 3 3 3 2 1 1 3 4 3 1 0 0 0 0 0 0
0 0 0 0 0 0 0 0 0 0 0 0 0 0 0 0 0 0 0 0 0 0 0 1 3 4 5 5 4 3 2 2 2 3 3 3 2 1 1 2 3 2 1 0 0 0 0 0 0
0 0 0 0 0 0 0 0 0 0 0 0 0 0 0 0 0 0 0 0 0 0 0 2 3 4 4 5 3 2 1 0 1 2 3 3 2 1 1 2 3 3 1 0 0 0 0 0 0
0 0 0 0 0 0 0 0 0 0 0 0 0 0 0 0 0 0 0 0 0 0 0 1 3 4 5 5 3 1 0 0 0 1 2 2 1 0 1 2 3 3 2 1 0 0 0 0 0
0 0 0 0 0 0 0 0 0 0 0 0 0 0 0 0 0 0 0 0 0 0 0 1 3 4 6 6 4 2 0 0 0 1 1 1 1 0 0 1 3 3 2 1 0 0 0 0 0
0 0 0 0 0 0 0 0 0 0 0 0 0 0 0 0 0 0 0 0 0 0 1 2 4 5 6 6 4 2 0 0 0 0 0 0 0 0 0 1 2 3 1 0 0 0 0 0 0
0 0 0 0 0 0 0 0 0 0 0 0 0 0 0 0 0 0 0 0 0 0 1 2 3 5 6 5 4 2 1 0 0 0 0 0 0 0 0 1 2 2 1 0 0 0 0 0 0
0 0 0 0 0 0 0 0 0 0 0 0 0 0 0 0 0 0 0 0 0 0 0 1 1 2 4 4 3 2 1 0 0 0 0 0 0 0 1 2 2 1 0 0 0 0 0 0 0
0 0 0 0 0 0 0 0 0 0 0 0 0 0 0 0 0 0 0 0 0 0 0 0 0 0 1 2 2 2 1 0 0 0 0 0 0 0 1 1 1 0 0 0 0 0 0 0 0
0 0 0 0 0 0 0 0 0 0 0 0 0 0 0 0 0 0 0 0 0 0 0 0 0 0 0 1 1 1 0 0 0 0 0 0 0 0 0 0 0 0 0 0 0 0 0 0 0
0 0 0 0 0 0 0 0 0 0 0 0 0 0 0 0 0 0 0 0 0 0 0 0 0 0 0 0 0 0 0 0 0 0 0 0 0 0 0 0 0 0 0 0 0 0 0 0 0
0 0 0 0 0 0 0 0 0 0 0 0 0 0 0 0 0 0 0 0 0 0 0 1 1 0 0 0 0 0 0 0 0 0 0 0 0 0 0 0 0 0 0 0 0 0 0 0 0
0 0 0 0 0 0 0 0 0 0 0 0 0 0 0 0 0 0 0 0 0 0 0 1 1 0 0 0 0 0 0 0 0 0 0 0 0 0 1 1 0 0 0 0 0 0 0 0 0
0 0 0 0 0 0 0 0 0 0 0 0 0 0 0 0 0 0 0 0 0 0 0 1 1 0 0 0 0 0 0 0 0 0 0 0 0 0 1 1 1 0 0 0 0 0 0 0 0
0 0 0 0 0 0 0 0 0 0 0 0 0 0 0 0 0 0 0 0 0 0 0 0 0 0 0 0 0 0 0 0 0 0 0 0 0 0 0 1 1 1 0 0 0 0 0 0 0
Wind_Speed
3 2 2 3 5 3 3 5 3 2 1 1 1 6 6 4 3 4 3 3 7 8 7 9 10 10 9 9 9 9 8 8 8 8 8 8 8 8 8 8 8 7 7 6 6 6 6 7 7
1 1 4 4 4 1 5 5 3 4 3 1 2 4 5 3 2 5 2 3 8 9 7 7 9 10 9 9 9 8 8 8 8 7 7 8 8 7 7 7 7 7 7 6 6 6 6 6 6
1 1 3 3 3 5 5 3 4 3 2 1 2 3 4 3 3 4 3 6 7 6 6 7 10 10 9 9 9 8 8 7 7 7 7 7 7 7 7 7 7 7 6 6 5 6 6 5 5
2 3 3 2 5 6 5 4 3 1 1 2 3 3 2 1 3 4 5 8 8 5 5 6 10 10 9 8 8 8 7 7 7 7 7 6 6 6 6 6 6 6 6 6 6 5 5 5 5
3 4 2 2 6 5 5 5 3 1 1 0 3 3 1 3 2 5 7 8 8 5 4 6 9 9 9 8 8 8 7 7 7 6 6 6 6 6 6 6 6 6 6 6 6 5 5 5 5
3 3 3 4 6 5 4 4 1 1 0 1 3 3 0 1 3 4 5 6 7 6 5 5 8 8 8 8 8 7 7 7 7 6 6 6 6 6 6 6 6 7 7 6 6 6 5 5 5
3 3 4 4 3 4 4 2 1 1 1 0 2 4 1 2 2 3 4 5 4 5 4 3 4 5 7 7 7 7 7 7 7 6 5 5 5 6 6 6 6 6 7 7 7 7 6 6 6
4 3 3 3 4 4 3 1 1 1 2 1 3 5 4 4 2 3 4 4 3 3 3 3 3 3 3 4 6 6 6 6 6 5 4 4 4 5 5 5 6 6 7 7 7 7 7 7 6
3 2 4 4 4 3 1 1 3 1 1 1 1 3 4 3 3 4 3 3 2 2 1 2 2 2 3 3 4 5 6 6 5 5 4 4 3 3 3 3 4 6 6 6 7 7 7 6 6
3 4 7 4 2 2 1 1 2 2 2 2 2 2 2 3 3 3 3 2 2 2 3 2 3 2 2 3 2 3 3 3 3 3 3 3 2 2 3 3 4 5 6 6 7 6 6 4 2
5 6 4 4 3 2 2 3 1 2 3 5 4 2 1 2 2 3 3 3 4 4 3 3 3 3 3 2 2 1 1 2 2 3 3 2 2 2 2 2 2 3 4 3 4 3 2 2 2
4 5 5 4 4 3 3 3 3 4 7 5 5 5 4 4 4 5 5 4 3 3 4 4 4 3 3 3 2 2 2 2 2 3 3 3 2 2 2 2 2 2 2 2 2 2 2 3 3
6 5 5 6 5 5 4 5 4 7 7 5 4 4 6 6 6 5 5 4 3 4 4 4 4 4 3 2 2 2 2 2 3 3 3 4 3 3 3 2 2 3 2 3 3 2 3 3 4
5 5 6 7 7 5 5 6 4 9 5 4 5 6 7 7 7 5 4 4 4 4 4 3 4 4 3 3 2 2 2 2 2 3 3 4 4 3 3 3 3 3 3 3 3 4 4 4 3
2 2 6 6 6 5 2 7 9 10 4 5 7 7 7 7 6 6 6 5 5 4 3 3 4 3 3 3 3 2 2 2 2 2 3 3 3 3 3 3 3 4 3 3 3 3 3 3 3
1 1 4 5 5 4 5 11 9 6 5 7 7 7 6 7 7 6 5 4 4 4 3 3 2 3 3 3 2 2 2 2 2 2 2 3 3 3 3 3 3 4 3 3 3 3 3 3 3
2 4 6 6 4 4 6 9 7 4 6 7 8 7 6 5 5 5 5 5 5 5 4 3 3 3 3 3 2 2 2 2 2 2 2 2 3 3 3 3 3 3 3 3 3 3 3 3 4
7 6 5 6 4 3 6 11 10 6 6 8 7 7 6 6 7 6 5 5 4 4 4 4 3 3 3 2 1 1 1 1 1 2 2 2 2 3 3 2 3 3 3 3 3 3 3 3 3
4 5 6 6 4 3 8 12 13 9 7 8 8 8 8 8 6 4 3 3 3 3 3 4 3 3 2 2 1 2 2 2 1 2 2 3 2 2 2 2 2 3 3 4 4 3 3 3 2
7 6 7 6 4 4 7 12 11 8 9 10 11 10 9 7 4 4 3 2 3 3 4 3 3 3 3 2 2 2 2 2 2 2 2 3 3 2 2 3 3 3 3 3 4 3 2 2 2
9 9 8 6 5 3 5 9 7 6 6 7 8 9 8 9 8 6 4 3 3 3 4 3 3 3 3 2 1 0 1 1 1 2 2 3 3 3 3 3 3 3 3 4 4 4 4 3 3
9 7 7 5 3 4 1 7 7 6 6 6 7 7 8 8 7 6 5 4 4 3 3 2 2 3 2 2 2 2 2 2 3 3 2 3 3 3 4 4 4 4 3 4 4 4 3 4 3
7 4 5 4 4 4 3 5 10 4 7 8 8 8 7 7 8 8 7 6 4 3 2 2 1 1 1 2 2 2 2 2 2 2 2 3 2 3 3 4 3 4 3 4 4 3 3 4 4
5 2 1 1 1 6 7 7 9 6 9 8 7 6 7 6 6 6 5 4 3 2 3 2 2 1 0 1 1 2 2 2 1 2 2 2 2 2 3 3 3 3 3 4 4 4 4 4 5
5 5 1 1 3 8 5 7 11 9 8 8 8 8 7 6 7 6 5 5 4 3 3 3 3 1 0 1 0 1 2 2 2 3 2 2 2 2 3 3 3 3 3 4 4 4 5 5 5
8 9 8 7 6 5 3 9 10 7 5 5 5 6 5 5 6 6 6 6 5 4 4 3 3 1 1 0 1 1 1 1 2 2 2 2 3 3 3 3 3 4 4 4 4 4 5 4 5
7 7 5 4 2 3 6 7 8 3 1 1 3 5 5 5 5 6 5 5 5 5 4 4 3 2 1 1 1 1 1 1 1 2 2 2 3 3 3 3 4 4 4 5 4 4 5 5 5
5 6 4 5 5 6 6 6 6 5 5 3 4 5 5 4 4 4 4 4 4 4 3 2 3 2 1 1 0 1 1 1 2 1 2 3 3 3 3 3 4 4 5 5 4 4 5 5 5
7 6 5 4 4 5 5 8 6 7 7 7 6 6 5 5 5 5 4 4 3 2 2 2 1 1 0 0 1 1 1 2 2 2 2 3 3 3 4 4 4 5 5 5 5 5 5 6 6
6 7 7 6 6 5 4 9 4 4 5 6 5 4 4 5 4 4 4 3 3 2 2 1 1 0 0 0 1 1 2 2 2 2 3 3 3 4 4 4 4 5 5 5 6 6 6 6 6
Wind_Direction
326 16 70 59 59 56 246 248 237 271 298 253 127 106 112 110 129 159 210 160 141 147 159 157 153 149 147 143 141 137 137 137 137 139 141 140 139 138 140 137 134 134 136 136 134 134 131 126 126
21 43 61 65 97 167 255 246 233 226 205 182 75 88 86 85 110 128 150 149 141 147 154 158 157 154 151 148 145 145 144 145 144 143 148 149 148 148 149 147 146 144 141 139 137 140 139 137 135
353 119 89 89 154 194 223 230 214 234 237 142 70 71 102 130 144 159 176 140 129 139 152 160 156 157 156 154 152 151 152 153 152 151 154 156 158 159 158 157 157 152 150 147 142 142 145 147 146
71 62 65 103 227 232 226 246 240 255 345 55 99 62 58 53 166 166 137 127 125 136 152 161 160 161 160 160 158 159 160 160 163 162 162 166 169 171 169 167 164 160 158 153 154 156 159 162 163
69 88 98 231 240 249 247 256 239 216 208 38 106 103 39 346 90 119 125 131 135 141 154 162 162 165 165 165 166 166 168 166 167 170 173 175 175 173 173 171 171 172 175 172 170 174 178 180 182
72 86 134 224 243 261 270 268 263 228 166 29 98 113 163 328 103 123 126 133 142 146 150 158 166 168 168 170 172 174 175 171 170 172 179 184 183 181 183 185 187 188 189 189 190 191 191 193 195
124 132 192 218 241 261 262 274 145 158 89 282 130 116 206 269 186 141 122 120 127 137 143 156 169 172 174 176 177 183 183 178 176 177 179 185 186 190 195 198 201 200 200 200 202 203 202 205 208
144 133 217 225 219 242 284 344 139 148 194 257 117 139 204 223 194 104 92 99 109 122 139 157 172 173 182 189 187 186 187 186 185 186 187 192 196 198 202 207 211 210 211 211 212 213 213 214 217
115 121 217 219 204 233 305 4 324 327 107 349 99 178 204 152 112 84 71 64 95 125 150 160 167 180 183 192 195 191 192 196 196 196 196 197 207 208 211 221 218 218 219 220 221 222 222 223 224
132 192 221 223 211 229 310 299 288 13 354 324 352 2 61 106 119 130 144 158 169 186 199 181 181 185 185 199 194 195 198 202 202 197 199 201 202 211 212 225 224 228 227 225 227 231 231 229 225
176 205 229 252 255 248 280 286 259 161 249 223 214 222 182 166 169 180 195 192 196 194 194 194 190 187 183 195 186 192 197 200 205 202 199 196 198 210 211 211 226 231 231 228 235 235 232 222 217
204 231 223 244 259 257 252 253 266 217 227 225 209 200 203 214 217 209 206 211 206 191 200 201 190 187 196 192 190 185 188 195 201 206 196 187 197 211 208 208 212 210 212 213 217 227 234 233 232
225 251 251 252 265 257 254 247 245 250 246 245 246 230 217 222 230 227 211 207 195 196 208 207 192 187 193 188 198 187 195 202 206 206 206 195 197 208 212 211 206 212 209 204 208 221 231 239 241
222 239 262 264 261 254 242 260 243 253 240 238 238 240 236 225 222 226 213 210 206 204 208 205 191 190 181 182 191 197 203 206 205 213 217 205 201 204 209 213 206 209 208 210 210 218 224 234 239
247 274 289 259 235 235 222 270 238 244 229 241 244 242 244 240 225 216 212 204 201 200 202 197 192 181 177 183 189 188 199 197 203 213 216 210 206 205 208 216 213 213 209 211 217 225 225 238 246
230 238 266 264 208 209 179 254 257 239 210 236 242 239 238 243 235 226 214 201 195 185 186 196 184 167 178 181 184 183 191 195 205 208 211 213 210 206 199 215 223 217 207 206 212 213 225 236 241
210 220 236 269 222 194 198 250 260 240 211 234 240 234 231 242 244 233 213 196 189 182 177 178 176 175 184 185 183 181 184 195 207 205 208 217 214 216 209 212 228 218 208 210 221 221 218 237 247
201 209 227 235 243 206 233 255 268 257 225 232 235 234 229 226 231 222 209 193 187 180 169 174 178 184 184 181 168 174 196 221 216 217 223 220 222 223 220 219 231 219 210 214 217 227 229 232 241
196 203 238 248 248 242 246 258 265 261 245 240 237 231 226 228 232 213 193 175 166 172 172 182 181 191 174 172 186 194 216 224 226 234 234 224 223 223 223 235 228 219 216 219 217 224 231 239 236
230 244 258 275 260 245 260 266 267 253 236 228 225 222 220 221 222 208 189 173 170 182 188 187 186 190 190 194 204 205 202 217 220 237 245 232 224 221 228 227 222 216 223 226 220 213 220 243 206
227 225 235 250 302 296 291 287 269 261 246 240 227 218 213 202 201 200 189 186 178 187 190 188 191 189 195 192 179 75 63 354 293 272 257 247 226 217 220 224 226 219 216 227 226 213 209 235 234
233 221 212 226 251 270 230 284 273 258 267 249 237 224 213 202 192 188 179 180 184 197 189 185 196 185 191 180 168 173 198 229 241 240 247 259 245 236 230 226 228 226 221 225 228 224 222 215 234
212 197 200 212 211 267 235 249 276 263 252 247 238 227 212 197 185 184 180 181 181 175 165 165 178 181 188 184 180 181 214 228 246 246 245 255 258 244 234 225 224 228 227 227 231 232 228 218 225
173 105 65 64 120 254 219 209 269 231 227 239 232 219 202 187 180 176 168 157 163 161 153 150 149 161 160 164 182 191 209 225 242 264 254 254 256 248 236 225 225 233 235 233 232 231 233 235 235
155 133 136 265 231 245 199 209 250 241 234 224 211 207 195 180 170 166 163 163 166 165 173 165 155 165 177 121 202 214 216 209 219 237 238 250 254 253 242 237 237 241 242 239 237 236 241 241 244
185 168 178 201 219 258 223 229 252 257 254 229 198 185 179 176 173 173 176 174 173 177 181 167 159 170 200 162 270 278 247 226 235 236 228 235 246 253 249 236 237 243 243 245 238 239 242 245 247
167 195 181 158 210 254 253 268 293 285 292 187 157 159 179 187 181 179 178 176 175 176 179 173 168 172 192 203 252 315 298 269 268 269 260 255 258 261 258 247 242 245 246 242 237 240 244 245 246
168 155 142 168 190 237 265 256 244 235 219 199 179 178 185 189 185 181 178 181 178 173 168 151 155 173 210 226 240 333 308 291 284 287 277 274 274 269 263 260 257 251 249 244 239 242 243 245 250
169 177 175 173 189 190 244 258 231 212 203 193 197 193 186 191 190 185 180 173 162 151 145 142 127 109 19 322 334 345 320 307 303 296 291 285 286 281 268 262 261 258 254 250 244 247 247 250 257
185 186 168 183 217 201 218 266 281 230 207 186 191 195 194 189 186 178 170 153 143 146 145 134 122 97 278 326 3 341 324 324 322 311 303 301 297 293 286 277 270 266 263 255 247 252 254 250 256